"Pseudo-MPEC" for M45F201

Created 2023 Nov 30 6:22:03 UT using Find_Orb

Click here for an explanation of pseudo-MPECs

 
 Astrometry: 
     M45F201*KB2023 11 12AeT#)ga3$,Df4MS#%oZ!u3YAstrometryLWq'bSct(4Rf9yywFhJM45
     M45F201 KB2023 11 12Tk)IL^x_rJi+XBH9q+'#q)pJcoGd]K).AUF@nDea*C*R6U7X.!NXM45
     M45F201 KB2023 11 12?wY)5^GlhMmbA1-,s7*WCtf[8DC:LVY#58tcV@+redacted;)3H%M45
     M45F201 KC2023 11 25.06709 04 37 14.75 +25 04 56.7    ~BP67 19.3 VZNEOCPW24
     M45F201 KC2023 11 25.08714 04 37 10.83 +25 04 42.3    ~BP67 18.8 VZNEOCPW24
     M45F201 KC2023 11 25.10631 04 37 07.03 +25 04 27.8    ~BP67 19.2 VZNEOCPW24
     M45F201 KC2023 11 25yUeLFo]CDIX\GPMXcPG%iuBy(])P\+'.+QkNun-W;cbhAKsh+bdMM29
     M45F201 KC2023 11 25;ZUR=+njvbuM.$H1YtA`oGY]Ru!Yk55CStlSeB;:I#K)*xW^L'rdM29
     M45F201 KV2023 11 263m?l^U'\.V(aAJV[s4TD:](8;bPgiH+pKo.PD4,LO'v_cIs=G3TP247
     M45F201  v2023 11 26%oclick80](XB^(mS7s^5-Db6L8vibo`c]:9b0RrG4+CLg7ZX0nr247
     M45F201 KV2023 11 26bV.hH*WdTqN72gSvswae@4RWn1BfY:(5q7a(oP,fq9Es9`^3tkEB247
     M45F201  v2023 11 26Vgb5[E$7p;xx=mRGSrsG4@'$%oSJ:O[lo7s--4`_,-8-adbSx(ZW247
     M45F201 KV2023 11 26aOd1C9k$+`tvY()HhiTO[a6yhereBRR@[gQB;.:US::97Mutu==)247
     M45F201  v2023 11 26lRk]Rg5*-Jq9mhTU(c.$HmoPhiK_aUR9ikgXPN)GgPiB+q+mrc?2247
     M45F201 KV2023 11 26F.VqG=SVforBG!Rv*y=Zi9?:y2f(,ONn+;HoX-kZ.l2^Pfd/o)#n247
     M45F201  v2023 11 26DexP:MxyM9explanation!Sb3:TnIZ-Qc;c3yg[o1Fm;:tm9!`:/247

Station data:
(247) Roving Observer  (N42.793200 E11.953100)  Italy.
(M29) O.M.Ni.A. Observatory, Cesena  (N44.147745 E12.248640)  Italy.
(M45) Starhopper Observatory, Sfantu Gheorghe  (N45.865582 E25.768900)
   Romania.  Observer F. Ursache. 0.41-m f/7.5 reflector + CMO.
(W24) Shamrock Banks Observatory, Clare  (N43.830757 W84.761830)  US/Michigan.
     Observer R. Townsend. 0.20-m f/8 Richey Chretien + CCD.

Orbital elements:  M45F201
   Perihelion 2024 Feb 29.63958 +/- 0.0337 TT = 15:20:59 (JD 2460370.13958)
Epoch 2023 Nov 26.0 TT = JDT 2460274.5   Earth MOID: 0.0035      AutoNEOCP
M 266.68950610 +/- 0.022            (J2000 ecliptic)
n   0.97564724 +/- 0.000109         Peri.  275.54718 +/- 0.07
a   1.00679449 +/- 7.5e-5           Node   249.89853 +/- 0.0013
e   0.0775318 +/- 0.000497          Incl.    0.70329 +/- 0.0050
P   1.01/368.98d           H 25.71  G  0.15   U  6.6
q 0.92873589 +/- 0.000432    Q 1.08485310 +/- 0.00058
10 of 12 observations 2023 Nov. 12-26; mean residual 0".51
Residuals in arcseconds: 
231112 M45( .06-  2.8+)   231125 W24  .97-  .10+    231126 247  1.0-  .43+    
231112 M45  .02+  .02-    231125 W24  .31-  .45+    231126 247  .03+  .56-    
231112 M45( .12+  2.3-)   231125 M29  1.2+  .37+    231126 247  .34+  .44+    
231125 W24  .39+  .30-    231125 M29  .07-  .58-    231126 247  .17+  .28-    

Ephemerides (geocentric):
Date (UTC) HH   RA             Dec           delta  r     elong  mag " sig PA
---- --------  ------------   ------------  ------ ------ -----  --- --------
2023 11 30 06  04 20 57.905   +22 50 41.93  .02538 1.0117 178.7 17.9 1.78  32
2023 11 30 07  04 20 48.328   +22 49 16.93  .02533 1.0116 178.7 17.9 1.80  32
2023 11 30 08  04 20 38.717   +22 47 51.56  .02529 1.0116 178.7 17.9 1.82  33
2023 11 30 09  04 20 29.071   +22 46 25.81  .02524 1.0115 178.7 17.9 1.84  33
2023 11 30 10  04 20 19.392   +22 44 59.69  .02519 1.0115 178.6 17.9 1.86  33
2023 11 30 11  04 20 09.677   +22 43 33.19  .02514 1.0114 178.6 17.9 1.88  34
2023 11 30 12  04 19 59.929   +22 42 06.31  .02509 1.0114 178.6 17.9 1.90  34
2023 11 30 13  04 19 50.145   +22 40 39.05  .02504 1.0113 178.6 17.9 1.92  35
2023 11 30 14  04 19 40.326   +22 39 11.40  .02500 1.0112 178.6 17.9 1.94  35
2023 11 30 15  04 19 30.473   +22 37 43.37  .02495 1.0112 178.5 17.9 1.97  35
2023 11 30 16  04 19 20.584   +22 36 14.95  .02490 1.0111 178.5 17.9 1.99  36
2023 11 30 17  04 19 10.660   +22 34 46.14  .02485 1.0111 178.4 17.9 2.01  36
2023 11 30 18  04 19 00.701   +22 33 16.94  .02480 1.0110 178.4 17.9 2.03  36
2023 11 30 19  04 18 50.706   +22 31 47.34  .02476 1.0110 178.4 17.9 2.05  36
2023 11 30 20  04 18 40.675   +22 30 17.35  .02471 1.0109 178.3 17.9 2.07  37
2023 11 30 21  04 18 30.608   +22 28 46.96  .02466 1.0109 178.2 17.9 2.09  37
2023 11 30 22  04 18 20.506   +22 27 16.17  .02461 1.0108 178.2 17.9 2.11  37
2023 11 30 23  04 18 10.367   +22 25 44.97  .02456 1.0107 178.1 17.9 2.13  38
2023 12 01 00  04 18 00.192   +22 24 13.37  .02452 1.0107 178.1 17.9 2.16  38
2023 12 01 01  04 17 49.980   +22 22 41.37  .02447 1.0106 178.0 17.9 2.18  38
2023 12 01 02  04 17 39.732   +22 21 08.95  .02442 1.0106 177.9 17.9 2.20  38
2023 12 01 03  04 17 29.447   +22 19 36.13  .02437 1.0105 177.9 17.9 2.22  39
2023 12 01 04  04 17 19.125   +22 18 02.89  .02433 1.0105 177.8 17.9 2.24  39
2023 12 01 05  04 17 08.767   +22 16 29.24  .02428 1.0104 177.7 17.9 2.26  39
2023 12 01 06  04 16 58.371   +22 14 55.17  .02423 1.0104 177.7 17.9 2.29  39
2023 12 01 07  04 16 47.937   +22 13 20.68  .02418 1.0103 177.6 17.9 2.31  40
2023 12 01 08  04 16 37.467   +22 11 45.77  .02413 1.0102 177.5 17.9 2.33  40
2023 12 01 09  04 16 26.958   +22 10 10.43  .02409 1.0102 177.4 17.9 2.35  40
2023 12 01 10  04 16 16.412   +22 08 34.67  .02404 1.0101 177.4 17.9 2.37  40
2023 12 01 11  04 16 05.828   +22 06 58.48  .02399 1.0101 177.3 17.9 2.39  41
2023 12 01 12  04 15 55.206   +22 05 21.86  .02394 1.0100 177.2 17.9 2.42  41
2023 12 01 13  04 15 44.546   +22 03 44.81  .02390 1.0100 177.1 17.9 2.44  41
2023 12 01 14  04 15 33.848   +22 02 07.32  .02385 1.0099 177.0 17.9 2.46  41
2023 12 01 15  04 15 23.110   +22 00 29.39  .02380 1.0099 177.0 17.9 2.48  41
2023 12 01 16  04 15 12.335   +21 58 51.02  .02376 1.0098 176.9 17.9 2.51  42
2023 12 01 17  04 15 01.520   +21 57 12.21  .02371 1.0097 176.8 17.9 2.53  42
2023 12 01 18  04 14 50.666   +21 55 32.96  .02366 1.0097 176.7 17.9 2.55  42
2023 12 01 19  04 14 39.774   +21 53 53.26  .02361 1.0096 176.6 17.9 2.57  42
2023 12 01 20  04 14 28.842   +21 52 13.11  .02357 1.0096 176.6 17.9 2.60  42
2023 12 01 21  04 14 17.870   +21 50 32.51  .02352 1.0095 176.5 17.9 2.62  42
2023 12 01 22  04 14 06.859   +21 48 51.45  .02347 1.0095 176.4 17.9 2.64  43
2023 12 01 23  04 13 55.808   +21 47 09.94  .02343 1.0094 176.3 17.9 2.66  43
2023 12 02 00  04 13 44.717   +21 45 27.97  .02338 1.0094 176.2 17.9 2.68  43
2023 12 02 01  04 13 33.586   +21 43 45.54  .02333 1.0093 176.1 17.9 2.71  43
2023 12 02 02  04 13 22.415   +21 42 02.64  .02329 1.0092 176.0 17.9 2.73  43
2023 12 02 03  04 13 11.204   +21 40 19.28  .02324 1.0092 176.0 17.9 2.75  43
2023 12 02 04  04 12 59.952   +21 38 35.45  .02319 1.0091 175.9 17.9 2.77  44
2023 12 02 05  04 12 48.659   +21 36 51.14  .02314 1.0091 175.8 17.9 2.80  44